[[{"header":{"parameterUnit":"m.s-1","parameterCategory":1,"la1":30.2991,"la2":30.254,"lo1":-89.0895,"lo2":-89.0444,"dy":0.0017,"dx":0.0017,"nx":28,"ny":28,"refTime":"2024-07-24T09:00:00:Z","depth":0,"parameterNumber":2,"parameterNumberName":"U-component_of_WINDS"},"data":[0,0,0,0,0,0,0,0,0,0,0,0,0,0,0,0,0,0,0,0,0,0,0,0,0,0,0,0,0,0,0,0,0,0,0,0,0,0,0,0,0,0,0,0,0,0,0,0,0,0,0,0,0,0,0,0,0,0,1.7415,1.7421,0,1.793,1.7936,1.7942,1.8111,1.8109,1.8107,1.8105,1.8632,1.8648,1.8663,0,0,0,0,0,0,0,0,0,0,0,0,0,1.6575,1.659,1.7414,1.7421,1.7428,1.7929,1.7937,1.7944,1.8112,1.8109,1.8106,1.8104,1.8627,1.8646,1.8665,0,0,0,0,0,0,0,0,0,0,0,0,0,1.7,1.6594,1.7413,1.7572,1.7591,1.7928,1.7937,1.7945,1.8112,1.8109,1.8106,1.8103,1.862,1.8644,1.8668,1.8884,0,0,1.8741,1.8752,0,0,0,0,0,0,0,0,1.6975,1.703,1.7542,1.7562,1.7584,1.7953,1.7834,1.826,1.8113,1.7915,1.8105,1.8101,1.8409,1.845,1.8554,1.8909,1.8931,1.8744,1.8758,1.8769,1.8775,0,0,0,0,0,0,0,1.6946,1.7009,1.7619,1.7549,1.7575,1.7617,1.7674,1.7915,1.8174,1.7932,1.7945,1.8004,1.8419,1.853,1.8568,1.8939,1.8743,1.8764,1.8779,1.8789,1.9499,1.9503,0,0,0,0,0,0,1.689,1.6984,1.7602,1.7634,1.7265,1.7635,1.7698,1.7838,1.8172,1.822,1.8006,1.801,1.8491,1.8539,1.8587,1.8866,1.8768,1.8791,1.8805,1.9494,1.95,1.9504,0,0,0,0,0,0,1.6871,1.6943,1.7582,1.7313,1.7397,1.7653,1.7809,1.785,1.7962,1.8228,1.8275,1.8072,1.849,1.8553,1.881,1.8887,1.8802,1.8824,1.9489,1.9496,1.9502,1.9423,0,0,0,0,0,0,1.6846,1.6936,1.7021,1.7314,1.7411,1.7796,1.7813,1.7862,1.8003,1.8012,1.8303,1.8348,1.8492,1.8772,1.8833,1.8918,1.8843,1.9484,1.9492,1.95,1.942,1.9426,1.9431,0,0,0,0,0,1.6816,1.6978,1.7025,1.7098,1.7523,1.78,1.7856,1.802,1.8008,1.8097,1.8268,1.8339,1.8866,1.8797,1.8867,1.8961,1.948,1.949,1.9499,1.9418,1.9425,1.9431,0,0,0,0,0,0,1.6689,1.7019,1.7075,1.7336,1.7539,1.7828,1.7945,1.8021,1.8232,1.8232,1.8424,1.8489,1.8731,1.8871,1.8788,1.9188,1.9176,1.9201,1.909,1.9099,1.9105,1.9069,1.8863,0,0,0,0,0,1.669,1.6888,1.7166,1.7369,1.7468,1.7688,1.7815,1.7923,1.814,1.8227,1.8417,1.8625,1.8839,1.8975,1.9186,1.9438,1.9506,1.9536,1.9541,1.9545,1.9566,1.9713,1.9731,1.9537,1.9537,1.9536,0,0,1.6698,1.6902,1.7016,1.7349,1.7519,1.772,1.776,1.797,1.8122,1.8259,1.8516,1.866,1.8905,1.9161,1.9283,1.9285,1.9633,1.9557,1.9558,1.9578,1.9725,1.9743,1.9759,1.9543,1.9542,1.9541,0,0,1.6816,1.6988,1.7179,1.7347,1.7604,1.7748,1.7793,1.8071,1.8174,1.8433,1.8541,1.8722,1.9084,1.9256,1.939,1.9567,1.9642,1.9629,1.9662,1.9802,1.9818,1.9833,1.9901,1.9923,1.9648,1.9648,1.9648,0,1.6793,1.7101,1.7267,1.7474,1.7618,1.7749,1.7945,1.8099,1.841,1.8507,1.8503,1.8961,1.9135,1.9435,1.9478,1.958,1.964,1.9602,1.9802,1.9818,1.9835,1.9902,1.9927,1.9645,1.9645,1.9646,1.9646,0,1.7062,1.7273,1.7396,1.7695,1.7851,1.805,1.8247,1.8385,1.8477,1.8622,1.8884,1.9096,1.9353,1.943,1.9522,1.9743,1.9737,1.9764,1.9758,1.9848,1.9915,1.9942,1.9641,1.9642,1.9643,1.9644,0,0,1.7123,1.7507,1.755,1.7688,1.7978,1.8145,1.8347,1.8599,1.8716,1.8923,1.9102,1.9403,1.9431,1.9583,1.9694,1.9816,1.9949,1.983,1.9839,1.985,2.0211,2.0193,2.0221,1.9996,2.0002,2.0006,2.0192,0,1.7283,1.7655,1.7809,1.811,1.8309,1.8434,1.8611,1.8808,1.8947,1.9135,1.9288,1.9501,1.9518,1.9612,1.9737,1.9906,2.0025,1.9894,2.0167,2.0175,2.011,2.0255,2.0238,2.0404,2.0219,2.0223,2.0226,0,1.7522,1.7733,1.8053,1.832,1.8409,1.8566,1.8809,1.8986,1.9211,1.9303,1.9471,1.9575,1.9794,1.9766,2.0071,1.9978,2.0098,2.0197,2.0207,2.0246,2.0212,2.0303,2.046,2.0487,2.0268,2.0265,2.0262,0,1.7541,1.7903,1.8144,1.8256,1.8571,1.8679,1.8815,1.9037,1.9178,1.9388,1.9483,1.9714,1.9844,2.0021,2.0185,2.0148,2.0476,2.0461,2.0562,2.0558,2.0633,2.0627,2.0818,2.0696,2.0695,2.0695,2.0694,0,1.771,1.7902,1.8157,1.8305,1.8525,1.8697,1.8909,1.9054,1.9249,1.9428,1.9546,1.9711,1.9914,2.0105,2.0233,2.0469,2.0524,2.0607,2.064,2.0601,2.0592,2.0688,2.0684,2.0702,2.07,2.0699,2.0698,0,1.7773,1.795,1.8221,1.8495,1.8568,1.8718,1.8954,1.9102,1.9243,1.9468,1.953,1.9754,1.9984,2.0163,2.0462,2.0548,2.0799,2.0831,2.0724,2.0743,2.0837,2.0828,2.1103,2.115,2.0988,2.0989,2.099,0,1.7873,1.8024,1.8314,1.8442,1.8577,1.8781,1.8926,1.9099,1.9245,1.9511,1.9627,1.9865,2.0067,2.0428,2.0618,2.0847,2.0891,2.097,2.0926,2.0883,2.09,2.0892,2.091,2.0978,2.0979,2.098,2.098,0,1.8033,1.8113,1.8317,1.8551,1.872,1.8912,1.9108,1.9205,1.9413,1.957,1.9808,1.9963,2.0268,2.0505,2.0753,2.0893,2.0974,2.0991,2.1028,2.0994,2.0929,2.0972,2.0747,2.0987,2.0986,2.0986,2.0985,2.0985,1.8124,1.8265,1.8491,1.8714,1.8878,1.9057,1.9211,1.9371,1.9572,1.9835,1.9922,2.0168,2.0387,2.0729,2.087,2.1064,2.1068,2.112,2.1135,2.1147,2.1146,2.089,2.1109,2.1109,2.1109,2.1109,2.1109,0,1.8297,1.8447,1.865,1.8919,1.9094,1.9149,1.9367,1.9511,1.9726,1.9923,2.0117,2.039,2.0618,2.0823,2.1061,2.1177,2.122,2.1235,2.1232,2.1264,2.1126,2.1074,2.1196,2.1196,2.1196,2.1196,2.1196,2.1196,1.8408,1.8652,1.8757,1.9082,1.9231,1.9473,1.9593,1.9759,1.9918,2.0217,2.0407,2.0538,2.0739,2.0992,2.1205,2.1259,2.1344,2.1351,2.1415,2.1284,2.1273,2.1263,2.1215,2.1366,2.1366,2.1538,2.154,2.1541]},{"header":{"parameterUnit":"m.s-1","parameterCategory":1,"la1":30.2991,"la2":30.254,"lo1":-89.0895,"lo2":-89.0444,"dy":0.0017,"dx":0.0017,"nx":28,"ny":28,"refTime":"2024-07-24T09:00:00:Z","depth":0,"parameterNumber":3,"parameterNumberName":"V-component_of_WINDS"},"data":[0,0,0,0,0,0,0,0,0,0,0,0,0,0,0,0,0,0,0,0,0,0,0,0,0,0,0,0,0,0,0,0,0,0,0,0,0,0,0,0,0,0,0,0,0,0,0,0,0,0,0,0,0,0,0,0,0,0,-1.1247,-1.1241,0,-1.0691,-1.0685,-1.0679,-1.0395,-1.0395,-1.0395,-1.0395,-0.9812,-0.9797,-0.9782,0,0,0,0,0,0,0,0,0,0,0,0,0,-1.2051,-1.2037,-1.1248,-1.1241,-1.1234,-1.0692,-1.0685,-1.0677,-1.0395,-1.0395,-1.0395,-1.0394,-0.9817,-0.9799,-0.9781,0,0,0,0,0,0,0,0,0,0,0,0,0,-1.1619,-1.2033,-1.1249,-1.1028,-1.1003,-1.0694,-1.0684,-1.0675,-1.0395,-1.0395,-1.0395,-1.0394,-0.9823,-0.9801,-0.9778,-0.9643,0,0,-0.9708,-0.9698,0,0,0,0,0,0,0,0,-1.1644,-1.159,-1.1068,-1.1043,-1.1014,-1.0613,-1.0754,-1.0328,-1.0395,-1.0626,-1.0395,-1.0394,-1.0078,-1.0034,-0.993,-0.9615,-0.959,-0.9706,-0.9692,-0.9682,-0.9676,0,0,0,0,0,0,0,-1.1674,-1.1612,-1.1027,-1.106,-1.1028,-1.0952,-1.089,-1.0672,-1.036,-1.0605,-1.0584,-1.0522,-1.0063,-0.9953,-0.9914,-0.9582,-0.9707,-0.9686,-0.9672,-0.9663,-0.9122,-0.9121,0,0,0,0,0,0,-1.1742,-1.1639,-1.1045,-1.101,-1.1335,-1.0938,-1.0869,-1.0742,-1.0362,-1.0304,-1.0523,-1.0511,-0.9992,-0.9941,-0.9893,-0.9704,-0.9682,-0.9661,-0.9648,-0.9123,-0.9122,-0.9121,0,0,0,0,0,0,-1.176,-1.1691,-1.1067,-1.1318,-1.1233,-1.0925,-1.0784,-1.0731,-1.062,-1.03,-1.0241,-1.0469,-0.999,-0.9925,-0.9706,-0.9681,-0.9651,-0.963,-0.9123,-0.9122,-0.9122,-0.9332,0,0,0,0,0,0,-1.1784,-1.17,-1.1649,-1.132,-1.1221,-1.0896,-1.0782,-1.072,-1.0583,-1.0562,-1.0233,-1.0178,-0.9985,-0.9742,-0.9684,-0.9648,-0.9612,-0.9124,-0.9123,-0.9122,-0.9325,-0.9338,-0.9349,0,0,0,0,0,-1.1814,-1.1728,-1.1648,-1.1577,-1.1152,-1.0895,-1.0838,-1.0621,-1.0582,-1.0525,-1.0319,-1.0188,-0.9695,-0.9723,-0.9654,-0.9612,-0.9125,-0.9123,-0.9122,-0.932,-0.9336,-0.9348,0,0,0,0,0,0,-1.2057,-1.1681,-1.1587,-1.1393,-1.1179,-1.0848,-1.0769,-1.0645,-1.0433,-1.0422,-1.0157,-1.0085,-0.989,-0.9728,-0.9767,-0.9458,-0.9396,-0.9381,-0.957,-0.9582,-0.9594,-0.9635,-0.9593,0,0,0,0,0,-1.209,-1.1917,-1.1595,-1.1455,-1.1352,-1.1081,-1.0961,-1.0812,-1.0577,-1.0484,-1.0261,-1.0035,-0.9827,-0.9696,-0.9488,-0.9302,-0.9223,-0.9238,-0.925,-0.9261,-0.925,-0.9135,-0.9137,-0.9117,-0.9117,-0.9117,0,0,-1.2152,-1.1925,-1.1831,-1.1498,-1.1314,-1.1137,-1.1006,-1.0824,-1.0687,-1.0454,-1.0235,-1.0064,-0.9793,-0.959,-0.9489,-0.9449,-0.9239,-0.926,-0.9271,-0.9252,-0.9134,-0.9136,-0.9138,-0.9116,-0.9116,-0.9116,0,0,-1.2174,-1.1988,-1.1848,-1.1668,-1.1393,-1.1212,-1.118,-1.0866,-1.0745,-1.0521,-1.0342,-1.0174,-0.9824,-0.9637,-0.9496,-0.9448,-0.9318,-0.9387,-0.9446,-0.9337,-0.9339,-0.9339,-0.9317,-0.9313,-0.9378,-0.9379,-0.9379,0,-1.2285,-1.2015,-1.1792,-1.1619,-1.1476,-1.1261,-1.1115,-1.0949,-1.0619,-1.0522,-1.0484,-1.0038,-0.9841,-0.9589,-0.9578,-0.9472,-0.9422,-0.9422,-0.9358,-0.9355,-0.9352,-0.9328,-0.9321,-0.9388,-0.9387,-0.9386,-0.9385,0,-1.2162,-1.1978,-1.1898,-1.1588,-1.1435,-1.1278,-1.1026,-1.0897,-1.0763,-1.0585,-1.0357,-1.0113,-0.9851,-0.978,-0.9646,-0.9507,-0.9491,-0.941,-0.9341,-0.9368,-0.934,-0.933,-0.9403,-0.9399,-0.9396,-0.9394,0,0,-1.232,-1.1891,-1.1864,-1.172,-1.1401,-1.125,-1.1081,-1.0828,-1.0721,-1.05,-1.0347,-1.0057,-0.9978,-0.9819,-0.9661,-0.9566,-0.9538,-0.9493,-0.9483,-0.9507,-0.9365,-0.9427,-0.942,-0.9452,-0.9449,-0.9447,-0.9386,0,-1.2294,-1.1985,-1.1779,-1.1548,-1.1372,-1.1165,-1.1016,-1.0802,-1.0631,-1.0452,-1.0261,-1.0058,-0.9972,-0.9874,-0.9772,-0.9564,-0.9505,-0.9565,-0.9301,-0.9295,-0.9373,-0.9406,-0.947,-0.9425,-0.9375,-0.9373,-0.9372,0,-1.2223,-1.2012,-1.1766,-1.1464,-1.1381,-1.1252,-1.1002,-1.0836,-1.0586,-1.0468,-1.0292,-1.0131,-0.9938,-0.989,-0.9617,-0.9663,-0.9542,-0.9424,-0.9417,-0.938,-0.9333,-0.9367,-0.9406,-0.9399,-0.9353,-0.9355,-0.9356,0,-1.2358,-1.2012,-1.1819,-1.1702,-1.1346,-1.1259,-1.1106,-1.0856,-1.0717,-1.0497,-1.0402,-1.0163,-1.003,-0.9845,-0.9622,-0.9609,-0.937,-0.9305,-0.9262,-0.9267,-0.9217,-0.9223,-0.9234,-0.9148,-0.9148,-0.9149,-0.9149,0,-1.2348,-1.2204,-1.1875,-1.1756,-1.1587,-1.1349,-1.1187,-1.1015,-1.0795,-1.0635,-1.0441,-1.0294,-1.0011,-0.9827,-0.9651,-0.9449,-0.9392,-0.9287,-0.9241,-0.9302,-0.9315,-0.9216,-0.9212,-0.9146,-0.9147,-0.9147,-0.9148,0,-1.2469,-1.2244,-1.2018,-1.1701,-1.1617,-1.1507,-1.1231,-1.1105,-1.0925,-1.0725,-1.0663,-1.0379,-1.0153,-0.9914,-0.9606,-0.9487,-0.9291,-0.9229,-0.9377,-0.935,-0.932,-0.9325,-0.9265,-0.9242,-0.9178,-0.9179,-0.918,0,-1.2476,-1.2361,-1.2032,-1.1913,-1.1766,-1.1577,-1.1434,-1.1195,-1.1053,-1.076,-1.0668,-1.0429,-1.0224,-0.9872,-0.9634,-0.9396,-0.9324,-0.932,-0.9287,-0.9351,-0.9318,-0.9327,-0.9312,-0.933,-0.9332,-0.9333,-0.9334,0,-1.2511,-1.2405,-1.221,-1.1974,-1.1811,-1.1613,-1.1406,-1.1319,-1.1038,-1.0888,-1.0657,-1.0499,-1.0185,-0.9948,-0.9682,-0.9517,-0.9377,-0.9348,-0.9324,-0.9383,-0.9472,-0.9419,-0.9402,-0.9349,-0.9347,-0.9346,-0.9346,-0.9345,-1.2571,-1.2458,-1.2209,-1.1996,-1.1817,-1.1629,-1.1495,-1.1299,-1.1104,-1.0833,-1.0702,-1.0471,-1.0219,-0.9848,-0.9688,-0.9499,-0.9457,-0.9425,-0.9415,-0.941,-0.9424,-0.9507,-0.945,-0.9449,-0.9448,-0.9448,-0.9447,0,-1.2592,-1.2422,-1.223,-1.195,-1.1781,-1.167,-1.1436,-1.1301,-1.1101,-1.0881,-1.0685,-1.0417,-1.0186,-0.9932,-0.9684,-0.9581,-0.9511,-0.9524,-0.9527,-0.949,-0.9477,-0.9521,-0.9585,-0.9585,-0.9585,-0.9585,-0.9585,-0.9585,-1.2583,-1.2385,-1.225,-1.196,-1.1788,-1.1563,-1.1438,-1.1262,-1.1085,-1.0797,-1.0605,-1.0443,-1.0206,-0.994,-0.9721,-0.9651,-0.9567,-0.9599,-0.9511,-0.9502,-0.9492,-0.9481,-0.952,-0.9584,-0.9584,-0.9538,-0.9537,-0.9537]}]]